Regional Weather Roundup
Issued by NWS

Home | Current Version | Previous Version | Text Only | Print | Product List | Glossary On
Versions: 1 2 3 4 5 6 7 8 9 10 11 12 13 14 15 16 17 18 19 20 21 22 23 24 25 26 27
000
ASUS45 KBOI 272310
RWRID

IDAHO REGIONAL WEATHER ROUNDUP
NATIONAL WEATHER SERVICE BOISE ID
500 PM MDT WED JUL 27 2016

NOTE: "FAIR" INDICATES FEW OR NO CLOUDS BELOW 12000 FEET
WITH NO SIGNIFICANT WEATHER AND/OR OBSTRUCTIONS TO VISIBILITY

IDZ012-014-280000-
SOUTHWEST IDAHO


CITY           SKY/WX    TMP DP  RH WIND       PRES   REMARKS
BOISE          SUNNY    100  42  13 NW12G18   29.95F HX  95
CALDWELL       SUNNY     99  51  19 NW9       29.94F HX  96
MOUNTAIN HOME  SUNNY    102  36  10 W9        29.93F HX  96
$$

IDZ016-017-280000-
SOUTHCENTRAL IDAHO


CITY           SKY/WX    TMP DP  RH WIND       PRES   REMARKS
BURLEY         SUNNY     94  40  15 VRB3      30.03F HX  90
JEROME         SUNNY     97  43  15 NW5       30.03F HX  93
TWIN FALLS     SUNNY     98  34  10 NE8       30.04F HX  92
$$

IDZ019>023-280000-
SOUTHEAST IDAHO


CITY           SKY/WX    TMP DP  RH WIND       PRES   REMARKS
IDAHO FALLS    MOSUNNY   92  33  12 SE13      30.11F
POCATELLO      SUNNY     96  33  11 SW14G20   30.09F HX  91
REXBURG        SUNNY     90  35  14 SW13      30.12F
$$

IDZ006-010-011-018-031-032-280000-
CENTRAL IDAHO MOUNTAINS


CITY           SKY/WX    TMP DP  RH WIND       PRES   REMARKS
MCCALL         MOSUNNY   86  39  19 W7        30.16F
HAILEY         MOSUNNY   91  39  16 S12         N/A
STANLEY          N/A     84  35  17 NW12G22   30.25F
SALMON         SUNNY     91  45  19 N7        29.99F
CHALLIS        MOSUNNY   94  29  10 W9G17     30.09F
$$

IDZ002-004-006-007-026-280000-
NORTHERN IDAHO


CITY           SKY/WX    TMP DP  RH WIND       PRES   REMARKS
LEWISTON       MOSUNNY   97  50  20 N7        29.95F HX  94
LOWELL           N/A    100  54  21 CALM      29.93F HX  98
COEUR D`ALENE  MOSUNNY   91  52  25 SW10      30.00S
MULLAN PASS    PTSUNNY   72  46  39 VRB5      30.27S
$$




USA.gov is the U.S. government's official web portal to all federal, state and local government web resources and services.